Fort Campbell, KY

12:52 AM CDT on August 25, 2016 (GMT -0500)
Campbell Army Air Field

Weather History for KHOP - July, 2013

Change the Weather History Date:

Tuesday, July 16, 2013

  Actual Average Record
Temperature  
Mean Temperature 80 °F -  
Max Temperature 91 °F 86 °F 95 °F (1997)
Min Temperature 71 °F 67 °F 56 °F (2014)
Cooling Degree Days 16    
Growing Degree Days 30 (Base 50)    
Moisture  
Dew Point 71 °F    
Average Humidity 77    
Maximum Humidity 100    
Minimum Humidity 47    
Precipitation  
Precipitation 0.00 in - - ()
Sea Level Pressure  
Sea Level Pressure 30.28 in    
Wind  
Wind Speed 4 mph (East)    
Max Wind Speed 7 mph    
Max Gust Speed -    
Visibility 10 miles    
Events      
Averages and records for this station are not official NWS values.
T = Trace of Precipitation, MM = Missing Value Source: NWS Daily Summary

Daily Weather History Graph

Daily Weather History Graph

Search for Another Location

Airport or City:

Trip Planner

Search our weather history database for the weather conditions in past years. The results will help you decide how hot, cold, wet, or windy it might be!

Date:

Astronomy

Jul. 16, 2013 Rise Set
Actual Time 5:43 AM CDT 8:07 PM CDT
Civil Twilight 5:14 AM CDT 8:37 PM CDT
Nautical Twilight 4:37 AM CDT 9:14 PM CDT
Astronomical Twilight 3:57 AM CDT 9:54 PM CDT
Moon 1:52 PM CDT (7/16) 12:08 AM CDT (7/16)
Length of Visible Light 15h 23m
Length of Day
14h 23m
First Quarter, 56% of the Moon is Illuminated
Jul 16
First Quarter
Jul 22
Full
Jul 29
Last Quarter
Aug 6
New
Aug 14
First Quarter

Hourly Weather History & Observations

Time (CDT) Temp. Heat Index Dew Point Humidity Pressure Visibility Wind Dir Wind Speed Gust Speed Precip Events Conditions
12:58 AM 75.7 °F - 71.2 °F 86% 30.25 in 10.0 mi East 4.6 mph - N/A   Clear
1:58 AM 74.3 °F - 71.6 °F 91% 30.25 in 10.0 mi ESE 3.5 mph - N/A   Clear
2:58 AM 74.1 °F - 71.6 °F 92% 30.25 in 10.0 mi East 3.5 mph - N/A   Clear
3:58 AM 73.6 °F - 71.6 °F 93% 30.25 in 10.0 mi East 2.3 mph - N/A   Clear
4:17 AM 73.4 °F - 71.6 °F 94% 30.26 in 10.0 mi East 3.5 mph - N/A   Light Drizzle
4:25 AM 73.4 °F - 71.6 °F 94% 30.26 in 10.0 mi ESE 2.3 mph - N/A   Clear
4:58 AM 72.5 °F - 71.6 °F 97% 30.26 in 10.0 mi East 2.3 mph - 0.00 in   Clear
5:58 AM 72.7 °F - 71.4 °F 96% 30.28 in 10.0 mi ESE 1.2 mph - N/A   Light Drizzle
6:00 AM 71.6 °F - 71.6 °F 100% 30.29 in 10.0 mi ESE 1.2 mph - N/A   Clear
6:05 AM 71.6 °F - 71.6 °F 100% 30.29 in 10.0 mi ESE 1.2 mph - N/A   Light Drizzle
6:08 AM 71.6 °F - 71.6 °F 100% 30.29 in 10.0 mi East 1.2 mph - N/A   Clear
6:58 AM 74.1 °F - 73.2 °F 97% 30.29 in 10.0 mi NE 3.5 mph - 0.00 in   Clear
7:35 AM 77.0 °F - 71.6 °F 83% 30.31 in 10.0 mi ESE 4.6 mph - N/A   Light Drizzle
7:45 AM 77.0 °F - 71.6 °F 83% 30.32 in 10.0 mi East 5.8 mph - N/A   Clear
7:58 AM 78.3 °F - 71.8 °F 80% 30.31 in 10.0 mi ESE 5.8 mph - 0.00 in   Clear
8:58 AM 82.6 °F 87.1 °F 71.1 °F 68% 30.32 in 10.0 mi SSW 5.8 mph - N/A   Clear
9:58 AM 85.5 °F 90.8 °F 70.9 °F 62% 30.32 in 10.0 mi SSW 5.8 mph - N/A   Clear
10:58 AM 86.4 °F 91.4 °F 70.7 °F 59% 30.32 in 10.0 mi Variable 2.3 mph - N/A   Clear
11:58 AM 88.0 °F 93.4 °F 70.5 °F 56% 30.31 in 10.0 mi Variable 3.5 mph - N/A   Partly Cloudy
12:58 PM 88.0 °F 92.5 °F 69.3 °F 54% 30.30 in 10.0 mi Variable 4.6 mph - N/A   Partly Cloudy
1:58 PM 88.7 °F 92.6 °F 68.4 °F 51% 30.28 in 10.0 mi Variable 6.9 mph - N/A   Partly Cloudy
2:58 PM 90.0 °F 94.5 °F 69.1 °F 50% 30.27 in 10.0 mi Variable 4.6 mph - N/A   Partly Cloudy
3:58 PM 90.9 °F 94.8 °F 68.4 °F 47% 30.26 in 10.0 mi SE 6.9 mph - N/A   Clear
4:58 PM 90.7 °F 95.9 °F 69.6 °F 50% 30.25 in 10.0 mi ENE 6.9 mph - N/A   Partly Cloudy
5:58 PM 90.3 °F 94.3 °F 68.2 °F 48% 30.24 in 10.0 mi ENE 5.8 mph - N/A   Clear
6:58 PM 89.4 °F 94.0 °F 68.9 °F 51% 30.24 in 10.0 mi ENE 5.8 mph - N/A   Clear
7:58 PM 84.2 °F 89.9 °F 72.1 °F 67% 30.25 in 10.0 mi NE 5.8 mph - N/A   Clear
8:58 PM 80.8 °F 85.8 °F 73.8 °F 79% 30.26 in 10.0 mi NE 4.6 mph - N/A   Clear
9:58 PM 79.0 °F - 74.3 °F 85% 30.28 in 10.0 mi NE 4.6 mph - N/A   Clear
10:58 PM 78.4 °F - 74.7 °F 88% 30.29 in 10.0 mi NE 3.5 mph - N/A   Clear
11:58 PM 77.7 °F - 74.8 °F 91% 30.29 in 10.0 mi NNE 3.5 mph - N/A   Clear